This demonstration page uses our WeatherBlox Daily Observations layout. Learn more.

Left ArrowRight Arrow

Hourly Observations for June 15, 2016

Temp ( °F °C ) Dew Point ( °F °C ) Humidity (%) Winds ( mph kmh ) Pressure ( in mb ) Visibility ( mi km ) Precip ( " mm )
12:53 am 00:53 Cloudy with Light Rain 61 16.1 44 6.7 54 54 W 6 9 29.84 1011 8 13 0.01 0.25
1:53 am 01:53 Cloudy 61 16.1 44 6.7 54 54 Calm 29.83 1010 10 16 0.00 0.03
2:53 am 02:53 Cloudy 59 15 49 9.4 69 69 Calm 29.82 1010 10 16 0.00 0.00
3:53 am 03:53 Cloudy 60 15.6 47 8.3 62 62 Calm 29.82 1010 10 16 0.00 0.00
4:53 am 04:53 Cloudy 60 15.6 43 6.1 53 53 SW 6 9 29.83 1010 10 16 0.00 0.00
5:53 am 05:53 Cloudy 61 16.1 39 3.9 44 44 SW 3 6 29.83 1010 10 16 0.00 0.00
6:53 am 06:53 Cloudy 60 15.6 43 6.1 53 53 SSW 7 11 29.84 1011 10 16 0.00 0.00
7:53 am 07:53 Cloudy 58 14.4 44 6.7 60 60 SSW 9 15 29.85 1011 10 16 0.00 0.00
8:53 am 08:53 Cloudy 59 15 44 6.7 58 58 SSW 12 19 29.87 1012 10 16 0.00 0.00
9:53 am 09:53 Cloudy 58 14.4 45 7.2 62 62 S 9 15 29.88 1012 10 16 0.00 0.00
10:53 am 10:53 Cloudy 60 15.6 45 7.2 58 58 SSW 10 17 29.89 1012 10 16 0.00 0.00
11:53 am 11:53 Cloudy 62 16.7 45 7.2 54 54 S 9 15 29.89 1012 10 16 0.00 0.00
12:53 pm 12:53 Mostly Sunny 65 18.3 45 7.2 49 49 SE 12 19 29.90 1012 10 16 0.00 0.00
1:53 pm 13:53 Cloudy 65 18.3 44 6.7 47 47 S 16 26 29.91 1013 10 16 0.00 0.00
2:53 pm 14:53 Mostly Sunny 65 18.3 46 7.8 51 51 SSE 21 33 29.90 1013 10 16 0.00 0.00
3:53 pm 15:53 Partly Cloudy 66 18.9 45 7.2 47 47 S 16 26 29.89 1012 10 16 0.00 0.00
4:42 pm 16:42 Cloudy with Nearby Thunderstorms 66 19 45 7 46 46 SSW 10 17 29.91 1013 10 16 0.00 0.00
4:53 pm 16:53 Cloudy with Nearby Thunderstorms 65 18.3 44 6.7 47 47 WSW 6 9 29.91 1013 10 16 0.00 0.00
5:53 pm 17:53 Cloudy with Nearby Thunderstorms 56 13.3 48 8.9 75 75 NW 15 24 29.91 1013 6 10 0.02 0.51
6:14 pm 18:14 Cloudy with Thunderstorms 54 12 48 9 82 82 NW 15 24 29.94 1014 5 8 0.00 0.00
6:25 pm 18:25 Cloudy with Nearby Thunderstorms 54 12.2 48 8.9 80 80 W 13 20 29.94 1014 5 8 0.13 3.30
6:37 pm 18:37 Cloudy with Strong Thunderstorms 54 12.2 48 8.9 80 80 WSW 8 13 29.97 1015 5 8 0.22 5.59
6:48 pm 18:48 Cloudy with Heavy Rain 55 13 48 9 77 77 SW 15 24 29.97 1015 5 8 0.00 0.00
6:53 pm 18:53 Cloudy with Light Rain 56 13.3 48 8.9 75 75 WSW 9 15 29.96 1015 5 8 0.36 9.14
7:53 pm 19:53 Cloudy with Rain 56 13.3 46 7.8 70 70 W 12 19 29.95 1014 10 16 0.16 4.06
8:53 pm 20:53 Cloudy with Rain 56 13.3 46 7.8 70 70 SSW 7 11 29.97 1015 10 16 0.13 3.30
9:53 pm 21:53 Cloudy with Rain 59 15 43 6.1 56 56 VRB 6 9 29.97 1015 3 5 0.23 5.84
10:53 pm 22:53 Mostly Cloudy 54 12.2 49 9.4 83 83 NE 6 9 29.98 1015 10 16 0.12 3.05
11:53 pm 23:53 Partly Cloudy 53 11.7 49 9.4 86 86 N 5 7 29.98 1015 10 16 0.00 0.00

Powered by AerisWeather